Willmar, MN

12:19 AM CDT on August 31, 2016 (GMT -0500)
Willmar

Weather History for KBDH - February, 2014

Change the Weather History Date:

Saturday, February 1, 2014

  Actual Average (KLJF) Record (KLJF)
Temperature  
Mean Temperature 4 °F -  
Max Temperature 14 °F 23 °F 45 °F (1987)
Min Temperature -9 °F 2 °F -31 °F (1951)
Degree Days  
Heating Degree Days 62    
Moisture  
Dew Point 1 °F    
Average Humidity 73    
Maximum Humidity 84    
Minimum Humidity 62    
Precipitation  
Precipitation 0.00 in - - ()
Sea Level Pressure  
Sea Level Pressure 30.00 in    
Wind  
Wind Speed 12 mph (West)    
Max Wind Speed 26 mph    
Max Gust Speed 31 mph    
Visibility 10 miles    
Events      
Averages and records for this station are not official NWS values.
T = Trace of Precipitation, MM = Missing Value Source: NWS Daily Summary

Daily Weather History Graph

Daily Weather History Graph

Search for Another Location

Airport or City:

Trip Planner

Search our weather history database for the weather conditions in past years. The results will help you decide how hot, cold, wet, or windy it might be!

Date:

Astronomy

Feb. 01, 2014 Rise Set
Actual Time 7:40 AM CST 5:28 PM CST
Civil Twilight 7:09 AM CST 5:59 PM CST
Nautical Twilight 6:33 AM CST 6:34 PM CST
Astronomical Twilight 5:59 AM CST 7:09 PM CST
Moon 8:22 AM CST (2/1) 8:13 PM CST (2/1)
Length of Visible Light 10h 50m
Length of Day
9h 47m
Waxing Crescent, 5% of the Moon is Illuminated
Feb 1
Waxing Crescent
Feb 6
First Quarter
Feb 14
Full
Feb 22
Last Quarter
Mar 1
New

Hourly Weather History & Observations

Time (CST) Temp. Windchill Dew Point Humidity Pressure Visibility Wind Dir Wind Speed Gust Speed Precip Events Conditions
12:15 AM 6.8 °F -8.6 °F -0.4 °F 72% 29.91 in 10.0 mi SSE 11.5 mph - N/A   Scattered Clouds
12:35 AM 6.8 °F -6.9 °F 1.4 °F 79% 29.90 in 10.0 mi SSE 9.2 mph - N/A   Clear
12:55 AM 8.6 °F -4.7 °F 1.4 °F 73% 29.90 in 10.0 mi SSE 9.2 mph - N/A   Clear
1:15 AM 6.8 °F -6.9 °F -0.4 °F 72% 29.89 in 10.0 mi SSE 9.2 mph - N/A   Clear
1:36 AM 8.6 °F -6.3 °F 1.4 °F 73% 29.88 in 10.0 mi SSE 11.5 mph - N/A   Scattered Clouds
1:55 AM 8.6 °F -6.3 °F 1.4 °F 73% 29.87 in 10.0 mi SSE 11.5 mph - N/A   Mostly Cloudy
2:15 AM 10.4 °F -4.8 °F 1.4 °F 67% 29.87 in 10.0 mi SSE 12.7 mph - N/A   Overcast
2:36 AM 12.2 °F -2.5 °F 3.2 °F 67% 29.88 in 10.0 mi SSE 12.7 mph - N/A   Mostly Cloudy
2:55 AM 12.2 °F -1.8 °F 3.2 °F 67% 29.87 in 10.0 mi SSE 11.5 mph - N/A   Mostly Cloudy
3:15 AM 12.2 °F -1.8 °F 3.2 °F 67% 29.87 in 10.0 mi SSE 11.5 mph - N/A   Overcast
3:36 AM 12.2 °F 0.7 °F 5.0 °F 73% 29.87 in 10.0 mi SSE 8.1 mph - N/A   Overcast
3:55 AM 12.2 °F 1.7 °F 5.0 °F 73% 29.87 in 10.0 mi SSE 6.9 mph - N/A   Overcast
4:15 AM 12.2 °F 2.9 °F 6.8 °F 79% 29.86 in 10.0 mi South 5.8 mph - N/A   Overcast
4:36 AM 14.0 °F 5.1 °F 6.8 °F 73% 29.86 in 10.0 mi South 5.8 mph - N/A   Overcast
4:55 AM 14.0 °F - 6.8 °F 73% 29.86 in 10.0 mi Calm Calm - N/A   Overcast
5:16 AM 14.0 °F 6.5 °F 6.8 °F 73% 29.86 in 10.0 mi SSE 4.6 mph - N/A   Overcast
5:35 AM 14.0 °F - 6.8 °F 73% 29.86 in 10.0 mi Calm Calm - N/A   Mostly Cloudy
5:55 AM 12.2 °F - 6.8 °F 79% 29.86 in 10.0 mi Calm Calm - N/A   Scattered Clouds
6:16 AM 10.4 °F -0.4 °F 3.2 °F 73% 29.86 in 10.0 mi SW 6.9 mph - N/A   Clear
6:35 AM 10.4 °F -2.4 °F 3.2 °F 73% 29.87 in 10.0 mi WSW 9.2 mph - N/A   Clear
6:55 AM 10.4 °F -2.4 °F 3.2 °F 73% 29.87 in 10.0 mi West 9.2 mph - N/A   Clear
7:16 AM 12.2 °F -3.1 °F 6.8 °F 79% 29.88 in 10.0 mi WNW 13.8 mph - N/A   Clear
7:35 AM 12.2 °F -4.3 °F 6.8 °F 79% 29.89 in 10.0 mi NW 16.1 mph - N/A   Clear
7:55 AM 10.4 °F -3.3 °F 5.0 °F 79% 29.90 in 10.0 mi WNW 10.4 mph - N/A   Clear
8:15 AM 10.4 °F -5.4 °F 3.2 °F 73% 29.92 in 10.0 mi NW 13.8 mph 18.4 mph N/A   Clear
8:35 AM 8.6 °F -7.0 °F 3.2 °F 79% 29.93 in 10.0 mi WNW 12.7 mph - N/A   Clear
8:55 AM 8.6 °F -6.3 °F 3.2 °F 79% 29.94 in 10.0 mi WNW 11.5 mph - N/A   Scattered Clouds
9:15 AM 10.4 °F -4.1 °F 3.2 °F 73% 29.95 in 10.0 mi WNW 11.5 mph - N/A   Overcast
9:35 AM 10.4 °F -6.6 °F 5.0 °F 79% 29.95 in 10.0 mi NW 16.1 mph - N/A   Mostly Cloudy
9:55 AM 10.4 °F -7.2 °F 5.0 °F 79% 29.96 in 10.0 mi WNW 17.3 mph - N/A   Scattered Clouds
10:15 AM 12.2 °F -4.3 °F 5.0 °F 73% 29.98 in 10.0 mi WNW 16.1 mph - N/A   Clear
10:35 AM 12.2 °F -4.8 °F 6.8 °F 79% 29.99 in 10.0 mi NW 17.3 mph - N/A   Mostly Cloudy
10:55 AM 12.2 °F -4.8 °F 6.8 °F 79% 30.00 in 10.0 mi NW 17.3 mph - N/A   Scattered Clouds
11:15 AM 12.2 °F -5.3 °F 6.8 °F 79% 30.01 in 10.0 mi WNW 18.4 mph - N/A   Clear
11:35 AM 12.2 °F -4.8 °F 5.0 °F 73% 30.02 in 10.0 mi WNW 17.3 mph 23.0 mph N/A   Clear
11:55 AM 12.2 °F -5.3 °F 5.0 °F 73% 30.02 in 10.0 mi NW 18.4 mph - N/A   Clear
12:15 PM 12.2 °F -7.5 °F 3.2 °F 67% 30.01 in 7.0 mi NW 24.2 mph 28.8 mph N/A   Clear
12:36 PM 12.2 °F -7.1 °F 3.2 °F 67% 30.01 in 7.0 mi NW 23.0 mph - N/A   Clear
12:55 PM 10.4 °F -9.5 °F 3.2 °F 73% 30.03 in 7.0 mi NW 23.0 mph - N/A   Clear
1:15 PM 10.4 °F -9.9 °F 1.4 °F 67% 30.03 in 5.0 mi NW 24.2 mph 31.1 mph N/A   Haze
1:36 PM 10.4 °F -9.5 °F 1.4 °F 67% 30.04 in 4.0 mi NW 23.0 mph - N/A   Haze
1:55 PM 10.4 °F -8.6 °F 1.4 °F 67% 30.05 in 10.0 mi NW 20.7 mph - N/A   Clear
2:15 PM 8.6 °F -12.7 °F -0.4 °F 67% 30.05 in 7.0 mi NW 25.3 mph - N/A   Clear
2:36 PM 8.6 °F -13.1 °F -0.4 °F 67% 30.06 in 7.0 mi NW 26.5 mph 29.9 mph N/A   Clear
2:55 PM 8.6 °F -11.4 °F -2.2 °F 62% 30.07 in 7.0 mi WNW 21.9 mph - N/A   Clear
3:15 PM 6.8 °F -13.4 °F -2.2 °F 67% 30.07 in 10.0 mi NW 20.7 mph 25.3 mph N/A   Clear
3:36 PM 6.8 °F -13.8 °F -2.2 °F 67% 30.08 in 10.0 mi NW 21.9 mph 25.3 mph N/A   Clear
3:55 PM 6.8 °F -13.8 °F -2.2 °F 67% 30.09 in 7.0 mi NW 21.9 mph - N/A   Clear
4:15 PM 6.8 °F -12.9 °F -2.2 °F 67% 30.10 in 7.0 mi NW 19.6 mph - N/A   Clear
4:36 PM 5.0 °F -14.7 °F -2.2 °F 72% 30.11 in 10.0 mi NW 18.4 mph - N/A   Clear
4:55 PM 5.0 °F -16.7 °F -4.0 °F 66% 30.12 in 10.0 mi NW 23.0 mph 26.5 mph N/A   Clear
5:15 PM 3.2 °F -15.9 °F -4.0 °F 72% 30.12 in 10.0 mi NW 16.1 mph - N/A   Clear
5:36 PM 3.2 °F -16.5 °F -4.0 °F 72% 30.14 in 10.0 mi NW 17.3 mph - N/A   Clear
5:55 PM 3.2 °F -16.5 °F -4.0 °F 72% 30.15 in 10.0 mi NW 17.3 mph - N/A   Clear
6:16 PM 3.2 °F -15.9 °F -5.8 °F 66% 30.15 in 10.0 mi NW 16.1 mph - N/A   Clear
6:35 PM 1.4 °F -16.9 °F -5.8 °F 72% 30.16 in 10.0 mi NW 13.8 mph - N/A   Clear
6:54 PM 1.4 °F -17.6 °F -5.8 °F 72% 30.17 in 10.0 mi NW 15.0 mph - N/A   Clear
9:43 PM -4.0 °F -14.6 °F -9.4 °F 78% 30.21 in 10.0 mi WNW 4.6 mph - N/A   Clear
9:49 PM -4.0 °F -14.6 °F -9.4 °F 78% 30.21 in 10.0 mi West 4.6 mph - N/A   Clear
10:15 PM -4.0 °F -16.3 °F -9.4 °F 78% 30.21 in 10.0 mi West 5.8 mph - N/A   Clear
10:35 PM -5.8 °F -16.7 °F -9.4 °F 84% 30.21 in 10.0 mi West 4.6 mph - N/A   Clear
10:55 PM -7.6 °F -20.6 °F -11.2 °F 84% 30.21 in 10.0 mi West 5.8 mph - N/A   Clear
11:15 PM -7.6 °F -20.6 °F -11.2 °F 84% 30.22 in 10.0 mi WSW 5.8 mph - N/A   Clear
11:36 PM -7.6 °F - -11.2 °F 84% 30.22 in 10.0 mi Calm Calm - N/A   Clear
11:55 PM -9.4 °F -18.6 °F -14.8 °F 77% 30.22 in 10.0 mi West 3.5 mph - N/A   Clear